Location: Chambotte
(45.7773°N, 5.8759°E)
Time: 15:44:57
(UTC+00:00)

Daily predictions for brighter satellites

Satellite Brightness Start Highest point End
(mag) Time Altitude Azimuth Time Altitude Azimuth Time Altitude Azimuth
USA 307 4.0 19:51:18 10° W 19:55:01 43° NNW 19:58:43 10° NE
MetOp-B 4.4 19:51:46 10° SSE 19:56:59 57° ENE 20:02:15 10° N
Okean 2 Rocket 3.3 19:53:02 10° NNW 19:57:33 76° W 20:02:00 10° S
CZ-4 R/B 3.8 19:54:45 10° SSW 19:57:57 22° W 20:01:09 10° NW
Cosmos 2151 Rocket 4.0 19:54:28 10° NNW 19:58:51 66° W 20:03:16 10° S
Okean O Rocket 2.2 19:56:33 10° S 20:00:48 58° W 20:05:05 10° NNW
MOS 1 4.3 19:57:26 10° SSE 20:03:04 78° ENE 20:08:45 10° NNW
IRS-1C Rocket 4.5 19:58:21 10° SE 20:03:26 51° ENE 20:08:31 10° N
Cosmos 1680 Rocket 4.2 19:58:41 10° NNW 20:03:48 56° WSW 20:08:55 10° S
PSLV R/B 4.3 20:01:53 10° S 20:05:19 53° W 20:08:51 10° NNW
Cosmos 2154 Rocket 4.3 20:00:12 10° SSE 20:06:15 49° E 20:12:20 10° NNE
Cosmos 1603 4.1 20:01:41 10° NNW 20:07:20 65° WSW 20:12:55 10° SSE
Cosmos 2074 Rocket 4.1 20:01:38 10° S 20:07:46 63° E 20:13:58 10° NNE
Cosmos 1892 3.8 20:04:49 10° SSW 20:08:13 43° WNW 20:11:38 10° N
Cosmos 1048 Rocket 4.5 20:04:53 10° NNW 20:10:06 51° ENE 20:15:19 10° SE
Ariane Rocket 3.9 20:07:36 10° SE 20:12:09 34° ENE 20:16:42 10° N
SPOT 5 3.0 20:11:14 10° SSE 20:16:07 85° ENE 20:21:18 10° NNW
MOS 1 Rocket 3.8 20:11:54 10° SE 20:16:19 43° ENE 20:20:32 10° N
ISS -2.2 20:13:29 10° W 20:16:38 38° NNW 20:19:46 10° NE
Cosmos 921 Rocket 3.1 20:13:39 10° N 20:17:47 57° ENE 20:21:45 11° SSE
USA 215 3.5 20:16:00 10° SE 20:22:30 68° SW 20:29:04 10° NW
Cosmos 1328 4.1 20:18:56 10° SSW 20:22:43 65° W 20:26:31 10° N
Cosmos 1825 4.0 20:20:27 10° SW 20:23:27 29° WNW 20:26:28 10° NNW
Cosmos 494 Rocket 4.0 20:19:56 10° NNW 20:25:14 89° WSW 20:30:28 10° SSE
NOSS 2-3 (D) 3.3 20:23:33 10° SSW 20:27:06 48° ESE 20:30:54 10° NE
IRS-1A Rocket 4.3 20:22:34 10° SSE 20:28:12 83° ENE 20:34:00 10° NNW
Okean-O 3.3 20:24:19 10° S 20:28:37 54° W 20:32:57 10° NNW
Timation 2 Rocket 4.0 20:25:33 10° S 20:31:47 61° ESE 20:37:48 10° NE
Gbstr 26 Del rocket 4.0 20:28:15 10° W 20:32:28 53° NNW 20:37:38 10° ENE
Cosmos 1125 Rocket 3.9 20:28:57 10° S 20:33:56 44° ESE 20:38:56 10° NNE
CZ-4C R/B 3.1 20:30:20 10° NNE 20:34:03 88° WNW 20:37:35 10° SSW
NOSS 3-1 (C) 4.4 20:37:12 15° SE 20:38:55 17° ESE 20:42:19 10° ENE
USA 276 2.4 20:37:25 10° WNW 20:40:20 58° NNE 20:42:48 14° E
Cosmos 2084 3.2 20:38:16 10° SW 20:42:25 85° SE 20:46:25 10° NE
SPOT 3 Rocket 3.8 20:38:30 14° SSE 20:42:53 59° ENE 20:48:01 10° N
NOSS 2-2 (E) 2.9 20:46:44 10° SW 20:50:01 76° NW 20:53:09 10° NE
NOSS 2-2 (C) 3.9 20:47:19 10° WSW 20:50:24 45° NW 20:53:26 10° NNE
Landsat 4 4.1 20:49:58 21° SE 20:51:52 41° ENE 20:55:07 10° N
In-Cosmos 22 Rocket 4.2 20:46:11 10° S 20:51:56 84° E 20:57:36 10° NNE
Nadezhda 3 Rocket 4.1 20:48:05 10° N 20:54:15 80° W 21:00:16 11° S
BREEZE-M DEB (TANK) 3.5 20:51:56 10° WNW 20:54:54 88° NNE 21:03:15 10° ESE
Cosmos 1544 Rocket 4.0 20:51:21 10° N 20:55:31 44° ENE 20:58:03 21° SE
NOSS 2-3 (E) 3.3 20:52:33 10° SW 20:56:10 75° NW 21:00:12 10° NE
Terra 1.9 20:52:38 13° S 20:56:47 76° WSW 21:01:32 10° NNW
SL-8 Rocket 4.4 20:55:32 16° SSE 21:00:18 47° E 21:06:17 10° NNE
Cosmos 2327 Rocket 4.5 21:00:40 10° S 21:06:52 84° E 21:13:13 10° N
ATLAS CENTAUR R/B 1.6 21:04:34 10° NW 21:08:31 58° WSW 21:10:52 23° SSE
Cosmos 1437 Rocket 3.1 21:07:19 27° SE 21:08:41 38° E 21:12:05 10° NNE
NOSS 2-3 (C) 4.1 21:10:28 10° SW 21:13:59 51° NW 21:17:57 10° NNE
Meteor 2-1 Rocket 4.3 21:09:05 10° NNW 21:14:42 74° W 21:18:59 17° S
Cosmos 1833 Rocket 2.8 21:09:13 10° NNW 21:14:52 65° ENE 21:18:22 23° SE
Cosmos 1455 Rocket 4.2 21:11:47 10° NNW 21:15:55 40° W 21:19:45 11° SSW
Cosmos 1975 Rocket 3.8 21:13:33 10° SSW 21:17:55 54° WNW 21:22:20 10° N
Cosmos 44 3.4 21:13:52 10° SSW 21:19:05 64° ESE 21:24:07 10° NE
Orbus 7S? 3.8 21:18:17 10° WNW 21:20:42 30° SW 21:21:21 26° SSW
Cosmos 962 Rocket 4.4 21:14:54 12° S 21:20:42 87° E 21:26:54 10° N
Lacrosse 5 3.6 21:17:16 10° W 21:21:56 36° NNW 21:26:36 10° NE
ERS-1 Rocket 4.1 21:18:03 11° SSW 21:22:36 38° W 21:27:17 10° NNW
Spot 2 Rocket 4.1 21:19:30 15° S 21:23:33 52° W 21:28:32 10° NNW
Cosmos 220 Rocket 3.8 21:22:03 10° NNW 21:26:12 83° WSW 21:28:09 31° SSE
Cosmos 2218 Rocket 4.0 21:23:42 21° SSE 21:27:49 63° E 21:33:53 10° NNE
Cosmos 2082 Rocket 3.6 21:23:05 10° N 21:27:52 28° NE 21:31:39 14° ESE
ATLAS 5 CENTAUR R/B 4.5 21:26:19 10° WNW 21:28:27 15° NNW 21:30:45 10° N
Landsat 5 3.5 21:27:21 10° NNE 21:31:46 74° ESE 21:34:10 26° S
Cosmos 2278 Rocket 2.7 21:31:13 27° SSE 21:33:40 40° ESE 21:38:55 10° NE
Cosmos 1606 3.6 21:32:56 10° NNW 21:36:17 39° W 21:38:05 22° SSW
MetOp-A 3.6 21:35:02 30° SSE 21:37:17 85° ENE 21:41:41 10° NNW
Cosmos 2298 Rocket 4.0 21:33:31 15° SSW 21:38:00 84° ESE 21:43:21 10° NNE
Cosmos 2341 Rocket 4.0 21:33:38 16° S 21:38:46 86° W 21:45:10 10° N
Cosmos 614 Rocket 3.9 21:37:12 10° NNW 21:42:17 75° ENE 21:44:35 33° SSE
CZ-2C R/B 4.3 21:40:42 10° NNE 21:45:05 41° E 21:46:20 34° SE
H-2A R/B 4.2 21:44:33 16° E 21:45:45 18° ENE 21:48:24 10° NNE
Cosmos 1536 Rocket 3.4 21:47:10 33° S 21:49:04 87° ESE 21:53:25 10° N
Ariane Rocket 4.3 21:47:25 15° SSW 21:51:03 33° W 21:55:36 10° NNW
CZ-4C R/B 4.3 21:45:20 10° NNW 21:51:15 31° NNE 21:58:17 10° E
ISS -1.8 21:50:57 10° WNW 21:53:55 29° N 21:56:53 10° ENE
Cosmos 482 Debris 4.4 21:51:20 10° SW 21:56:42 80° SSE 22:00:37 10° ENE
USA 290 3.3 21:58:14 31° ENE 21:58:14 31° ENE 22:00:27 10° NE
COSMOS 2406 4.3 21:52:25 10° NNW 21:57:38 36° NE 22:00:48 20° ESE
ARIANE 5 R/B 2.9 21:58:54 39° SE 22:00:17 57° ENE 22:04:41 10° N
GENESIS II 4.2 21:59:44 10° NW 22:03:12 51° WSW 22:03:31 49° SW
ATLAS 3B R/B 3.3 22:01:26 30° SSE 22:04:01 40° ESE 22:10:56 10° NE
Cosmos 1269 Rocket 4.3 21:59:45 10° NNW 22:04:59 58° ENE 22:07:06 34° SE
BREEZE-M DEB (TANK) 3.1 21:56:18 10° WNW 22:05:15 47° SW 22:06:12 39° S
Cosmos 1727 Rocket 4.0 21:59:30 10° N 22:05:53 73° E 22:08:48 34° SSE
Cosmos 2228 3.9 22:02:28 10° NNW 22:06:25 40° W 22:08:06 27° SW
Cosmos 1943 Rocket 2.4 22:08:21 37° SSE 22:10:03 49° ESE 22:15:28 10° NE
Cosmos 1821 Rocket 4.0 22:09:49 31° S 22:13:03 83° E 22:19:27 10° N
USA 276 4.0 22:11:46 10° W 22:13:09 20° WSW 22:13:09 20° WSW
Cosmos 2058 3.7 22:19:03 34° E 22:19:10 34° E 22:22:55 10° NNE
ALOS 2 3.7 22:19:19 29° E 22:20:27 33° ENE 22:24:25 10° N
Alouette 2 Rocket 4.3 22:24:00 36° ESE 22:24:25 37° E 22:29:11 10° NNE
Spot 4 4.2 22:23:23 39° ESE 22:24:49 54° ENE 22:29:33 10° N
Cosmos 2084 Rocket 3.5 22:22:42 10° NNW 22:26:38 59° NE 22:27:21 49° E
NOSS 3-1 (C) 3.3 22:24:28 14° SW 22:28:43 70° NW 22:34:36 10° NE
SeaSat 1 2.9 22:26:56 33° ESE 22:28:49 53° NE 22:33:36 10° NNW
Cosmos 1812 2.4 22:32:59 10° N 22:36:28 84° NE 22:36:28 84° NE
Cosmos 1238 Rocket 3.5 22:38:51 10° N 22:42:01 37° ENE 22:42:01 37° ENE
BREEZE-M R/B 4.1 22:38:08 10° W 22:42:35 79° NNW 22:58:32 10° ENE
PSLV R/B 3.9 22:40:16 10° N 22:44:15 73° WNW 22:44:51 60° SW
Cosmos 1892 Rocket 3.5 22:45:05 58° SSW 22:45:56 82° W 22:50:24 10° N
Cosmos 1626 Rocket 4.4 22:48:21 34° E 22:48:27 34° E 22:52:21 10° NNE
Cosmos 1140 Rocket 3.6 22:48:19 10° NNW 22:53:27 68° ENE 22:54:49 47° SE
Cosmos 1833 Rocket 4.4 22:54:11 10° NW 22:58:14 20° W 23:00:03 18° SW
BREEZE-M DEB (TANK) 4.0 22:59:07 10° WNW 23:02:14 77° NNE 23:11:17 10° ESE
USA 307 4.5 22:59:38 10° NW 23:02:58 28° NNE 23:05:31 13° ENE
Cosmos-2242 3.4 23:01:25 10° N 23:05:31 48° ENE 23:05:51 47° E
Cosmos 2123 Rocket 4.0 22:59:22 10° N 23:05:41 84° W 23:07:51 44° S
NOSS 3-1 (A) 3.1 23:03:57 36° SW 23:06:06 78° NW 23:12:02 10° NE
Lacrosse 5 4.3 23:02:07 10° NW 23:06:06 23° N 23:10:07 10° NE
Cosmos 2082 Rocket 2.4 23:06:47 10° NW 23:12:16 54° WSW 23:13:28 45° SSW
Cosmos 1656 Rocket 4.1 23:13:38 41° SE 23:14:15 43° ESE 23:19:27 10° NE
Cosmos 1515 4.1 23:11:59 10° N 23:14:57 51° NE 23:14:57 51° NE
Cosmos 2278 Rocket 3.5 23:12:59 12° WSW 23:17:47 36° NW 23:22:59 10° NNE
Lacrosse 4 Rocket 3.6 23:20:40 14° E 23:20:40 14° E 23:22:01 10° ENE
Cosmos 2369 Rocket 2.9 23:19:37 34° ESE 23:20:13 35° ESE 23:25:16 10° NE
H-2A R/B 3.1 23:20:31 40° W 23:20:31 40° W 23:24:03 10° NNW
ULPM Upper Stage 2.6 23:16:39 10° NW 23:20:59 73° SW 23:20:59 73° SW
PSLV R/B 3.5 23:17:42 10° NNE 23:22:02 72° ESE 23:22:20 69° SE
Cosmos 489 Rocket 4.4 23:24:24 41° SSW 23:26:45 81° WNW 23:33:01 10° NNE
Iridium 4 Rocket 4.5 23:24:33 10° N 23:30:02 44° E 23:31:56 34° SE
ISS -2.6 23:27:46 10° WNW 23:30:09 41° NW 23:30:09 41° NW
USA 229 DEB 3.6 23:32:18 47° S 23:33:45 59° ESE 23:40:18 10° NE
USA 229 3.6 23:32:27 47° SSE 23:33:53 58° ESE 23:40:25 10° NE
Cosmos 2058 Rocket 3.9 23:30:19 10° NNW 23:34:17 36° W 23:34:37 35° WSW
Cosmos 1782 2.8 23:31:05 10° NNW 23:34:35 68° WNW 23:34:35 68° WNW
Cosmos 1862 3.6 23:35:38 53° ENE 23:35:38 53° ENE 23:39:05 10° NNE
Cosmos 1378 3.7 23:35:43 10° N 23:38:06 47° N 23:38:06 47° N
CZ-4C R/B 3.0 23:33:20 10° NW 23:40:34 88° NE 23:45:34 28° SE
COSMOS 2455 4.2 23:35:42 10° NNW 23:41:15 36° NE 23:46:44 10° ESE
Meteor 2-2 Rocket 4.2 23:36:07 10° NNW 23:41:52 81° W 23:43:24 51° S
COSMOS 2406 3.8 23:36:41 10° NW 23:41:58 40° WSW 23:42:49 38° SW
Cosmos 2221 3.5 23:42:13 10° N 23:46:10 36° ENE 23:46:52 34° E
Cosmos 2285 Rocket 4.0 23:46:37 10° NNW 23:53:06 82° ENE 23:55:34 41° SSE
Cosmos 1943 Rocket 3.7 23:49:48 13° WSW 23:54:00 30° NW 23:58:57 10° N
Cosmos 1825 Rocket 4.0 23:54:06 46° ESE 23:54:22 46° E 23:58:31 10° NNE
